Location: Star Camp Observatory
(34.2910°N, 116.3827°W)
Time: 00:26:00
(UTC-08:00)

Envisat - Pass Details

Date: 18 November 2019
Orbit: 764 x 766 km, 98.1° (Epoch: 11 December)

Event Time Altitude Azimuth Distance (km) Brightness Sun altitude
Rises 18:10:04 0° 177° (S) 3,215 6.3 -18.6°
Reaches altitude 10° 18:12:24 10° 182° (S) 2,292 5.6 -19.1°
Maximum altitude 18:17:21 55° 260° (W) 915 3.7 -20.1°
Drops below altitude 10° 18:22:20 10° 338° (NNW) 2,305 5.6 -21.1°
Sets 18:24:41 0° 343° (NNW) 3,235 6.3 -21.6°
